[[{"header":{"parameterUnit":"m.s-1","parameterCategory":1,"la1":30.2991,"la2":30.254,"lo1":-89.0895,"lo2":-89.0444,"dy":0.0017,"dx":0.0017,"nx":28,"ny":28,"refTime":"2025-08-08T09:00:00:Z","depth":0,"parameterNumber":2,"parameterNumberName":"U-component_of_WINDS"},"data":[0,0,0,0,0,0,0,0,0,0,0,0,0,0,0,0,0,0,0,0,0,0,0,0,0,0,0,0,0,0,0,0,0,0,0,0,0,0,0,0,0,0,0,0,0,0,0,0,0,0,0,0,0,0,0,0,0,0,-3.5177,-3.5177,0,-3.5185,-3.5185,-3.5185,-3.5085,-3.5082,-3.508,-3.5077,-3.5089,-3.5092,-3.5095,0,0,0,0,0,0,0,0,0,0,0,0,0,-3.5081,-3.5083,-3.5177,-3.5177,-3.5177,-3.5185,-3.5185,-3.5185,-3.5086,-3.5082,-3.5079,-3.5076,-3.5089,-3.5092,-3.5095,0,0,0,0,0,0,0,0,0,0,0,0,0,-3.5109,-3.5084,-3.5177,-3.5128,-3.5124,-3.5185,-3.5185,-3.5185,-3.5086,-3.5082,-3.5078,-3.5074,-3.5087,-3.5092,-3.5096,-3.5205,0,0,-3.5109,-3.5111,0,0,0,0,0,0,0,0,-3.5108,-3.5113,-3.5135,-3.5132,-3.5127,-3.513,-3.5155,-3.5192,-3.5087,-3.5101,-3.5077,-3.5072,-3.5107,-3.5109,-3.512,-3.5206,-3.5206,-3.511,-3.5112,-3.5114,-3.5115,0,0,0,0,0,0,0,-3.5106,-3.5112,-3.518,-3.5136,-3.5131,-3.5108,-3.5107,-3.5162,-3.5127,-3.5099,-3.5092,-3.5094,-3.5103,-3.5116,-3.5119,-3.5206,-3.5109,-3.5113,-3.5116,-3.5118,-3.5385,-3.5389,0,0,0,0,0,0,-3.511,-3.5111,-3.518,-3.518,-3.5107,-3.5113,-3.5112,-3.5133,-3.5126,-3.5121,-3.5098,-3.5089,-3.511,-3.5114,-3.5119,-3.5249,-3.5114,-3.5118,-3.5121,-3.538,-3.5386,-3.5391,0,0,0,0,0,0,-3.5108,-3.5117,-3.518,-3.5144,-3.515,-3.5119,-3.5143,-3.5135,-3.5147,-3.5124,-3.5118,-3.5116,-3.5107,-3.5113,-3.5185,-3.5248,-3.512,-3.5124,-3.5375,-3.5382,-3.5388,-3.5507,0,0,0,0,0,0,-3.5106,-3.5117,-3.5157,-3.5145,-3.5152,-3.5244,-3.5147,-3.5139,-3.5155,-3.5144,-3.514,-3.5136,-3.5104,-3.5179,-3.5189,-3.5251,-3.5127,-3.5369,-3.5378,-3.5386,-3.5498,-3.5517,-3.5534,0,0,0,0,0,-3.5103,-3.5191,-3.516,-3.5168,-3.5201,-3.5248,-3.5252,-3.5213,-3.516,-3.5201,-3.5187,-3.5136,-3.5238,-3.5187,-3.5198,-3.5262,-3.5365,-3.5376,-3.5385,-3.549,-3.5514,-3.5534,0,0,0,0,0,0,-3.5212,-3.5188,-3.5153,-3.524,-3.5247,-3.5231,-3.5281,-3.5239,-3.5262,-3.5251,-3.5202,-3.5202,-3.5283,-3.5279,-3.5222,-3.5369,-3.5293,-3.5306,-3.5368,-3.5391,-3.5409,-3.5409,-3.5131,0,0,0,0,0,-3.5246,-3.5284,-3.5262,-3.534,-3.5345,-3.5313,-3.5332,-3.5301,-3.5306,-3.5309,-3.5299,-3.5308,-3.5342,-3.5366,-3.5396,-3.5496,-3.5495,-3.5546,-3.5564,-3.5579,-3.5591,-3.5647,-3.567,-3.5424,-3.5424,-3.5423,0,0,-3.5317,-3.5309,-3.5336,-3.5362,-3.5364,-3.5406,-3.5316,-3.5364,-3.5396,-3.5317,-3.5384,-3.5377,-3.5384,-3.5471,-3.5508,-3.547,-3.5659,-3.5592,-3.5604,-3.5608,-3.5659,-3.5683,-3.5704,-3.5431,-3.5429,-3.5428,0,0,-3.5469,-3.5465,-3.5532,-3.5535,-3.5537,-3.5515,-3.5531,-3.5522,-3.5514,-3.5581,-3.5522,-3.556,-3.5619,-3.5627,-3.5638,-3.5794,-3.5749,-3.5805,-3.5901,-3.5956,-3.5975,-3.5992,-3.605,-3.6071,-3.5817,-3.5817,-3.5817,0,-3.5558,-3.5618,-3.5571,-3.5624,-3.5638,-3.5566,-3.5635,-3.564,-3.5654,-3.5666,-3.5622,-3.5696,-3.5695,-3.5784,-3.5822,-3.5833,-3.5852,-3.5806,-3.5975,-3.5992,-3.6007,-3.6062,-3.6084,-3.5824,-3.5823,-3.5822,-3.5822,0,-3.5728,-3.5771,-3.5824,-3.5838,-3.5858,-3.5918,-3.5883,-3.5908,-3.5876,-3.5859,-3.5929,-3.5925,-3.5954,-3.5972,-3.5941,-3.6057,-3.6034,-3.5983,-3.5907,-3.6039,-3.609,-3.611,-3.5834,-3.5831,-3.5829,-3.5828,0,0,-3.5951,-3.5938,-3.5959,-3.5965,-3.5963,-3.5996,-3.6053,-3.608,-3.6105,-3.6116,-3.6165,-3.6217,-3.6171,-3.6184,-3.6153,-3.62,-3.6327,-3.6144,-3.6144,-3.6181,-3.6459,-3.6499,-3.6524,-3.6296,-3.63,-3.6303,-3.6459,0,-3.6101,-3.6198,-3.6158,-3.6259,-3.6299,-3.6231,-3.6282,-3.6287,-3.6273,-3.6307,-3.6291,-3.633,-3.6264,-3.6272,-3.6316,-3.6302,-3.6383,-3.629,-3.6344,-3.6347,-3.6348,-3.655,-3.6592,-3.674,-3.6478,-3.6482,-3.6484,0,-3.6289,-3.6308,-3.6413,-3.6405,-3.642,-3.6466,-3.6489,-3.6521,-3.6526,-3.6512,-3.6528,-3.6486,-3.6544,-3.6466,-3.6547,-3.6485,-3.6504,-3.6501,-3.6506,-3.6512,-3.6426,-3.6565,-3.6785,-3.6809,-3.6514,-3.6512,-3.651,0,-3.6445,-3.6496,-3.6566,-3.6573,-3.6565,-3.6599,-3.6597,-3.6598,-3.6617,-3.6637,-3.665,-3.6676,-3.6692,-3.6715,-3.6683,-3.6628,-3.6769,-3.6687,-3.6762,-3.6764,-3.6797,-3.6796,-3.7028,-3.6805,-3.6805,-3.6804,-3.6804,0,-3.6619,-3.6687,-3.6636,-3.668,-3.6754,-3.6708,-3.6783,-3.6774,-3.6776,-3.6818,-3.676,-3.6801,-3.6755,-3.6792,-3.6767,-3.684,-3.6846,-3.6839,-3.6832,-3.6846,-3.6847,-3.686,-3.685,-3.681,-3.6809,-3.6808,-3.6807,0,-3.6807,-3.6775,-3.6848,-3.6833,-3.6831,-3.6887,-3.6876,-3.6917,-3.6897,-3.6952,-3.6962,-3.6933,-3.6974,-3.6943,-3.6984,-3.6967,-3.7064,-3.7041,-3.7062,-3.7057,-3.7135,-3.7129,-3.7385,-3.7418,-3.7172,-3.7174,-3.7176,0,-3.6921,-3.6972,-3.6963,-3.6986,-3.6988,-3.7026,-3.7045,-3.7001,-3.7024,-3.7034,-3.7075,-3.711,-3.7137,-3.7206,-3.719,-3.7221,-3.7201,-3.7288,-3.7205,-3.7218,-3.7206,-3.7204,-3.7211,-3.7306,-3.7309,-3.7311,-3.7313,0,-3.7129,-3.711,-3.7139,-3.7164,-3.7188,-3.7206,-3.7218,-3.7241,-3.7197,-3.7226,-3.7266,-3.7287,-3.7328,-3.7365,-3.7391,-3.7391,-3.7347,-3.7339,-3.7359,-3.7375,-3.7386,-3.7384,-3.7111,-3.7334,-3.7332,-3.7331,-3.7329,-3.7329,-3.7285,-3.7327,-3.7328,-3.7363,-3.7368,-3.7381,-3.7419,-3.7405,-3.7437,-3.7467,-3.7439,-3.7489,-3.7494,-3.7524,-3.7529,-3.7569,-3.7533,-3.7561,-3.7568,-3.7577,-3.7589,-3.7377,-3.7573,-3.7572,-3.7572,-3.7571,-3.7571,0,-3.7492,-3.7489,-3.7521,-3.7541,-3.7569,-3.7521,-3.7533,-3.7561,-3.7605,-3.7613,-3.764,-3.7688,-3.7723,-3.771,-3.7742,-3.7777,-3.7758,-3.7787,-3.7786,-3.7787,-3.7618,-3.7599,-3.7803,-3.7803,-3.7803,-3.7803,-3.7802,-3.7802,-3.7603,-3.7673,-3.7656,-3.7728,-3.7724,-3.7772,-3.7783,-3.7796,-3.7802,-3.7858,-3.7887,-3.7877,-3.7878,-3.7909,-3.7941,-3.7936,-3.7953,-3.7991,-3.7979,-3.7822,-3.7799,-3.7777,-3.776,-3.7994,-3.7994,-3.8146,-3.8147,-3.8148]},{"header":{"parameterUnit":"m.s-1","parameterCategory":1,"la1":30.2991,"la2":30.254,"lo1":-89.0895,"lo2":-89.0444,"dy":0.0017,"dx":0.0017,"nx":28,"ny":28,"refTime":"2025-08-08T09:00:00:Z","depth":0,"parameterNumber":3,"parameterNumberName":"V-component_of_WINDS"},"data":[0,0,0,0,0,0,0,0,0,0,0,0,0,0,0,0,0,0,0,0,0,0,0,0,0,0,0,0,0,0,0,0,0,0,0,0,0,0,0,0,0,0,0,0,0,0,0,0,0,0,0,0,0,0,0,0,0,0,-2.5658,-2.5658,0,-2.5664,-2.5664,-2.5664,-2.5615,-2.5614,-2.5612,-2.5611,-2.5615,-2.5617,-2.5618,0,0,0,0,0,0,0,0,0,0,0,0,0,-2.5602,-2.5604,-2.5658,-2.5658,-2.5658,-2.5664,-2.5664,-2.5664,-2.5615,-2.5614,-2.5612,-2.561,-2.5615,-2.5617,-2.5618,0,0,0,0,0,0,0,0,0,0,0,0,0,-2.5619,-2.5604,-2.5658,-2.5635,-2.5633,-2.5664,-2.5664,-2.5664,-2.5616,-2.5614,-2.5611,-2.561,-2.5614,-2.5617,-2.5619,-2.5673,0,0,-2.5625,-2.5626,0,0,0,0,0,0,0,0,-2.5618,-2.5621,-2.5638,-2.5636,-2.5634,-2.5637,-2.5646,-2.5667,-2.5616,-2.5622,-2.5611,-2.5609,-2.5624,-2.5625,-2.5631,-2.5673,-2.5673,-2.5625,-2.5626,-2.5627,-2.5628,0,0,0,0,0,0,0,-2.5617,-2.5621,-2.5661,-2.5638,-2.5636,-2.5623,-2.5623,-2.565,-2.5634,-2.5621,-2.5618,-2.5619,-2.5623,-2.5629,-2.5631,-2.5673,-2.5625,-2.5627,-2.5628,-2.5629,-2.5759,-2.5761,0,0,0,0,0,0,-2.562,-2.562,-2.566,-2.5661,-2.5621,-2.5626,-2.5626,-2.5638,-2.5634,-2.5632,-2.5621,-2.5617,-2.5626,-2.5628,-2.5631,-2.5693,-2.5627,-2.5629,-2.563,-2.5757,-2.5759,-2.5762,0,0,0,0,0,0,-2.5619,-2.5624,-2.566,-2.564,-2.5643,-2.5629,-2.5643,-2.5639,-2.5645,-2.5634,-2.5631,-2.563,-2.5625,-2.5628,-2.5662,-2.5693,-2.563,-2.5632,-2.5754,-2.5758,-2.5761,-2.5819,0,0,0,0,0,0,-2.5617,-2.5624,-2.5644,-2.564,-2.5645,-2.5693,-2.5645,-2.5641,-2.5649,-2.5644,-2.5642,-2.5639,-2.5623,-2.566,-2.5665,-2.5694,-2.5634,-2.5751,-2.5756,-2.576,-2.5814,-2.5824,-2.5832,0,0,0,0,0,-2.5615,-2.566,-2.5646,-2.5651,-2.567,-2.5694,-2.5697,-2.5678,-2.5652,-2.5672,-2.5665,-2.564,-2.5689,-2.5664,-2.5669,-2.57,-2.5749,-2.5755,-2.5759,-2.581,-2.5822,-2.5832,0,0,0,0,0,0,-2.5668,-2.5659,-2.5643,-2.5688,-2.5693,-2.5686,-2.5711,-2.5691,-2.5702,-2.5697,-2.5672,-2.5672,-2.5711,-2.5709,-2.5681,-2.5751,-2.5714,-2.5721,-2.5751,-2.5762,-2.5771,-2.5771,-2.5636,0,0,0,0,0,-2.5685,-2.5706,-2.5697,-2.5737,-2.5741,-2.5726,-2.5736,-2.5721,-2.5724,-2.5725,-2.572,-2.5724,-2.574,-2.5751,-2.5765,-2.5814,-2.5812,-2.5838,-2.5847,-2.5854,-2.5859,-2.5884,-2.5895,-2.5778,-2.5778,-2.5778,0,0,-2.5719,-2.5717,-2.5732,-2.5748,-2.5749,-2.5771,-2.5728,-2.5752,-2.5768,-2.5729,-2.5761,-2.5758,-2.576,-2.5802,-2.582,-2.5802,-2.5892,-2.586,-2.5866,-2.5868,-2.5891,-2.5902,-2.5912,-2.5781,-2.5781,-2.578,0,0,-2.5794,-2.5795,-2.5829,-2.5831,-2.5834,-2.5824,-2.5832,-2.5829,-2.5826,-2.5858,-2.5829,-2.5847,-2.5876,-2.5878,-2.5884,-2.5959,-2.5936,-2.5965,-2.6011,-2.6036,-2.6045,-2.6053,-2.6079,-2.6089,-2.597,-2.597,-2.5971,0,-2.5837,-2.5869,-2.5848,-2.5875,-2.5883,-2.5849,-2.5883,-2.5886,-2.5893,-2.5899,-2.5878,-2.5913,-2.5912,-2.5954,-2.5973,-2.5978,-2.5986,-2.5965,-2.6045,-2.6053,-2.606,-2.6085,-2.6095,-2.5974,-2.5973,-2.5973,-2.5973,0,-2.5921,-2.5943,-2.597,-2.5979,-2.5989,-2.6019,-2.6003,-2.6016,-2.6001,-2.5993,-2.6026,-2.6024,-2.6037,-2.6046,-2.6031,-2.6086,-2.6074,-2.605,-2.6012,-2.6075,-2.6098,-2.6108,-2.5979,-2.5977,-2.5976,-2.5976,0,0,-2.6028,-2.6025,-2.6035,-2.6039,-2.604,-2.6056,-2.6085,-2.6098,-2.6109,-2.6116,-2.6139,-2.6164,-2.6141,-2.6147,-2.6132,-2.6154,-2.6213,-2.6126,-2.6126,-2.6142,-2.6273,-2.6291,-2.6303,-2.6198,-2.62,-2.6201,-2.6273,0,-2.61,-2.6149,-2.6131,-2.6181,-2.6201,-2.617,-2.6194,-2.6197,-2.6191,-2.6206,-2.6198,-2.6217,-2.6186,-2.6189,-2.6209,-2.6202,-2.6239,-2.6196,-2.6218,-2.6219,-2.6218,-2.6315,-2.6334,-2.6401,-2.6282,-2.6283,-2.6284,0,-2.619,-2.6201,-2.6253,-2.625,-2.6258,-2.6281,-2.6291,-2.6307,-2.631,-2.6303,-2.631,-2.629,-2.6317,-2.628,-2.6317,-2.6288,-2.6296,-2.6294,-2.6296,-2.6297,-2.6255,-2.6318,-2.6422,-2.6432,-2.6298,-2.6297,-2.6296,0,-2.6263,-2.629,-2.6324,-2.6328,-2.6326,-2.6343,-2.6342,-2.6343,-2.6352,-2.6362,-2.6367,-2.6379,-2.6386,-2.6396,-2.6379,-2.6354,-2.6418,-2.638,-2.6413,-2.6414,-2.6427,-2.6427,-2.6535,-2.6434,-2.6434,-2.6433,-2.6433,0,-2.6345,-2.6377,-2.6356,-2.6378,-2.6413,-2.6393,-2.6428,-2.6425,-2.6426,-2.6445,-2.6419,-2.6437,-2.6415,-2.6431,-2.6419,-2.6451,-2.6454,-2.6449,-2.6445,-2.6451,-2.6452,-2.6456,-2.645,-2.6436,-2.6436,-2.6435,-2.6435,0,-2.6431,-2.6418,-2.6454,-2.6449,-2.6449,-2.6475,-2.6471,-2.649,-2.6482,-2.6507,-2.6511,-2.6498,-2.6516,-2.6501,-2.6518,-2.651,-2.6552,-2.6542,-2.6551,-2.6548,-2.6582,-2.6579,-2.6696,-2.671,-2.6601,-2.6602,-2.6603,0,-2.6484,-2.6508,-2.6507,-2.6518,-2.652,-2.6538,-2.6548,-2.6529,-2.6539,-2.6544,-2.6563,-2.6578,-2.659,-2.662,-2.6612,-2.6625,-2.6614,-2.6654,-2.6616,-2.6621,-2.6614,-2.6613,-2.6615,-2.6662,-2.6663,-2.6664,-2.6665,0,-2.6579,-2.6571,-2.6586,-2.6599,-2.6611,-2.662,-2.6627,-2.6637,-2.6618,-2.6631,-2.6649,-2.6659,-2.6676,-2.6692,-2.6703,-2.6702,-2.668,-2.6677,-2.6685,-2.6691,-2.6696,-2.6693,-2.6572,-2.6674,-2.6673,-2.6673,-2.6672,-2.6672,-2.6649,-2.667,-2.6672,-2.6689,-2.6692,-2.6699,-2.6717,-2.6711,-2.6726,-2.6739,-2.6727,-2.6749,-2.6751,-2.6763,-2.6765,-2.6781,-2.6764,-2.6777,-2.678,-2.6783,-2.6787,-2.6694,-2.6783,-2.6783,-2.6782,-2.6782,-2.6782,0,-2.6742,-2.6742,-2.6758,-2.6769,-2.6783,-2.6762,-2.6768,-2.6781,-2.6801,-2.6804,-2.6817,-2.6838,-2.6853,-2.6846,-2.6859,-2.6874,-2.6864,-2.6878,-2.6876,-2.6876,-2.6802,-2.6793,-2.6885,-2.6885,-2.6885,-2.6885,-2.6885,-2.6885,-2.6792,-2.6825,-2.6818,-2.6852,-2.6852,-2.6874,-2.6879,-2.6885,-2.6888,-2.6913,-2.6926,-2.6921,-2.6921,-2.6934,-2.6947,-2.6944,-2.695,-2.6968,-2.6962,-2.6892,-2.6882,-2.6872,-2.6864,-2.6969,-2.6969,-2.7034,-2.7035,-2.7036]}]]